Regional Weather Roundup
Issued by NWS

Home | Current Version | Previous Version | Text Only | Print | Product List | Glossary Off
Versions: 1 2 3 4 5 6 7 8 9 10 11 12 13 14 15 16 17 18 19 20 21 22 23 24 25 26 27 28 29 30 31 32 33 34 35 36 37 38 39 40 41 42 43 44 45 46 47 48 49 50

449
ASUS43 KDTX 221810
RWRMI
MICHIGAN HOURLY REGIONAL WEATHER ROUNDUP
NATIONAL WEATHER SERVICE DETROIT/PONTIAC MI
ISSUED BY NATIONAL WEATHER SERVICE GRAND RAPIDS MI
200 PM EDT SAT JUL 22 2017

NOTE: "FAIR" INDICATES FEW OR NO CLOUDS BELOW 12,000 FEET WITH NO
SIGNIFICANT WEATHER AND/OR OBSTRUCTION TO VISIBILITY.

MIZ047>049-052>055-059>063-066>070-074>076-081>083-221900-
SOUTHEAST LOWER MICHIGAN

CITY           SKY/WX    TMP DP  RH WIND       PRES   REMARKS
ADRIAN         MOSUNNY   81  70  69 W9        29.80F
6HR MIN TEMP:  71; 6HR MAX TEMP:  81; 6HR PCP:  0.10;

ALMA           CLOUDY    71  68  91 NW5       29.81S
6HR MIN TEMP:  68; 6HR MAX TEMP:  71;

ANN ARBOR      PTSUNNY   83  72  69 W6        29.78F
BAD AXE        CLOUDY    69  66  92 E3        29.82S
6HR MIN TEMP:  66; 6HR MAX TEMP:  70;

DETROIT CITY   PTSUNNY   82  71  69 VRB3      29.78F
6HR MIN TEMP:  76; 6HR MAX TEMP:  82; 6HR PCP:  0.01;

DETROIT        PTSUNNY   85  72  65 VRB5      29.78F HX  91
6HR MIN TEMP:  74; 6HR MAX TEMP:  86; 6HR PCP:  0.01;

FLINT          PTSUNNY   80  71  74 SW8       29.78F
6HR MIN TEMP:  71; 6HR MAX TEMP:  80; 6HR PCP:  0.25;

GROSSE ILE     MOSUNNY   81  74  78 S10       29.77F
6HR MIN TEMP:  73; 6HR MAX TEMP:  82; 6HR PCP:  0.01;

HILLSDALE      PTSUNNY   82  70  65 W10       29.81F
HOWELL         CLOUDY    82  71  68 W9        29.79F
6HR MIN TEMP:  71; 6HR MAX TEMP:  82; 6HR PCP:  0.13;


CITY           SKY/WX    TMP DP  RH WIND       PRES   REMARKS
JACKSON        PTSUNNY   84  70  62 W12G18    29.79F
6HR MIN TEMP:  71; 6HR MAX TEMP:  84; 6HR PCP:  0.05;

LANSING        PTSUNNY   82  68  62 W12       29.78F
6HR MIN TEMP:  72; 6HR MAX TEMP:  84; 6HR PCP:  0.05;

MASON          PTSUNNY   82  71  69 W5G17     29.79F
MONROE         CLOUDY    83  73  71 SW9G18    29.78F
MT. CLEMENS    MOSUNNY   81  74  80 VRB2      29.76F
6HR MIN TEMP:  75; 6HR MAX TEMP:  81; 6HR PCP:  0.02;

PONTIAC        PTSUNNY   79  72  79 VRB3      29.78F
6HR MIN TEMP:  72; 6HR MAX TEMP:  79; 6HR PCP:  0.12;

PORT HOPE        N/A     69  67  93 E15       29.82F
6HR MIN TEMP:  68; 6HR MAX TEMP:  72; 6HR PCP:  0.29;

PORT HURON     LGT RAIN  73  70  88 E5        29.80S
TRI CITIES     CLOUDY    73  72  96 W5        29.80S
6HR MIN TEMP:  69; 6HR MAX TEMP:  73; 6HR PCP:  0.20;

YPSILANTI      MOSUNNY   88  73  61 SW9       29.78F HX  95
6HR MIN TEMP:  73; 6HR MAX TEMP:  88; 6HR PCP:  0.03;

$$
MIZ043>046-050>051-056>058-064>065-071>073-077>080-221900-
SOUTHWEST LOWER MICHIGAN

CITY           SKY/WX    TMP DP  RH WIND       PRES   REMARKS
BATTLE CREEK   PTSUNNY   80  69  69 W12       29.81F
6HR MIN TEMP:  71; 6HR MAX TEMP:  83;

BENTON HARBOR  CLOUDY    75  69  81 VRB7      29.84R
6HR MIN TEMP:  73; 6HR MAX TEMP:  78;

BIG RAPIDS     CLOUDY    70  65  85 E6        29.82F
6HR MIN TEMP:  66; 6HR MAX TEMP:  70; 6HR PCP:  0.56;

COLDWATER      CLOUDY    83  71  66 W8        29.81F
6HR MIN TEMP:  70; 6HR MAX TEMP:  83;

HOLLAND        CLOUDY    76  68  76 W12G23    29.83S
6HR MIN TEMP:  71; 6HR MAX TEMP:  79; 6HR PCP:  0.01;

GRAND RAPIDS   CLOUDY    76  71  85 W12       29.79F
6HR MIN TEMP:  70; 6HR MAX TEMP:  81;

KALAMAZOO      PTSUNNY   81  67  62 NW12      29.81F
6HR MIN TEMP:  73; 6HR MAX TEMP:  83;

MARSHALL       CLOUDY    84  70  62 W9        29.79F
6HR MIN TEMP:  71; 6HR MAX TEMP:  85;

MOUNT PLEASANT PTSUNNY   73  68  83 NE5       29.80F
MUSKEGON       CLOUDY    78  71  79 NW5       29.80F
6HR MIN TEMP:  71; 6HR MAX TEMP:  79;

STURGIS        CLOUDY    81  71  71 CALM      29.81F
6HR MIN TEMP:  71; 6HR MAX TEMP:  82;

$$
MIZ016>042-221900-
NORTHERN LOWER MICHIGAN

CITY           SKY/WX    TMP DP  RH WIND       PRES   REMARKS
ALPENA         CLOUDY    71  69  93 SE9       29.84F
6HR MIN TEMP:  69; 6HR MAX TEMP:  72; 6HR PCP: TRACE;

BEAVER ISLAND  CLOUDY    73  65  75 NE6       29.84S
6HR MIN TEMP:  69; 6HR MAX TEMP:  75;

BELLAIRE       CLOUDY    78  63  58 N3        29.81F
6HR MIN TEMP:  68; 6HR MAX TEMP:  78;

CADILLAC       CLOUDY    73  64  72 CALM      29.83F
CHARLEVOIX     CLOUDY    73  65  77 N3        29.85F
GAYLORD        CLOUDY    77  62  59 NE6       29.84S
6HR MIN TEMP:  70; 6HR MAX TEMP:  77;

HOUGHTON LAKE  CLOUDY    74  64  71 VRB3      29.83F
6HR MIN TEMP:  67; 6HR MAX TEMP:  74; 6HR PCP:  0.10;

MANISTEE       CLOUDY    77  68  73 NW6       29.80F
OSCODA         DRIZZLE   70  67  90 W5        29.83F
6HR MIN TEMP:  68; 6HR MAX TEMP:  74;

PELLSTON       CLOUDY    75  65  70 E8        29.83F
6HR MIN TEMP:  67; 6HR MAX TEMP:  77;

TRAVERSE CITY  CLOUDY    74  68  81 NE7       29.80S
6HR MIN TEMP:  70; 6HR MAX TEMP:  79; 6HR PCP: TRACE;

LUDINGTON      CLOUDY    73  69  85 E5        29.80F
6HR MIN TEMP:  67; 6HR MAX TEMP:  74;

$$
MIZ007>008-015-221900-
EASTERN UPPER MICHIGAN

CITY           SKY/WX    TMP DP  RH WIND       PRES   REMARKS
KINROSS        CLOUDY    73  61  65 E6        29.86S
6HR MIN TEMP:  64; 6HR MAX TEMP:  74;

MACKINAC ISLAN CLOUDY    69  64  84 E10G16    29.84F
6HR MIN TEMP:  67; 6HR MAX TEMP:  69;

NEWBERRY       CLOUDY    72  66  82 S6        29.85F
6HR MIN TEMP:  62; 6HR MAX TEMP:  74;

S. S. MARIE    CLOUDY    74  60  61 SE7       29.85S
6HR MIN TEMP:  61; 6HR MAX TEMP:  76;

$$
MIZ004>006-011>014-085-221900-
CENTRAL UPPER MICHIGAN

CITY           SKY/WX    TMP DP  RH WIND       PRES   REMARKS
MANISTIQUE     CLOUDY    73  67  82 E7        29.83S
6HR MIN TEMP:  68; 6HR MAX TEMP:  75;

ESCANABA       CLOUDY    75  66  73 SE8       29.81F
MENOMINEE      CLOUDY    75  65  70 S8        29.83S
6HR MIN TEMP:  69; 6HR MAX TEMP:  77;

SAWYER-GWINN   PTSUNNY   73  64  73 SW6       29.83F
$$
MIZ001>003-009>011-084-221900-
WESTERN UPPER MICHIGAN

CITY           SKY/WX    TMP DP  RH WIND       PRES   REMARKS
IRON MOUNTAIN  PTSUNNY   78  64  61 NW6       29.81S
6HR MIN TEMP:  65; 6HR MAX TEMP:  79;

HOUGHTON       PTSUNNY   73  63  70 CALM      29.82F
6HR MIN TEMP:  61; 6HR MAX TEMP:  74;

COPPER HARBOR    N/A     58  50  75 SE9G18    29.84R
6HR MIN TEMP:  55; 6HR MAX TEMP:  65;

IRONWOOD       CLOUDY    74  64  71 NW10      29.83S
6HR MIN TEMP:  66; 6HR MAX TEMP:  75;

$$

ABBREVIATIONS USED IN REMARKS
   TC - TEMPERATURE IN CELSIUS
  WCI - WIND CHILL INDEX
   HX - HEAT INDEX
  VSB - VISIBILITY





USA.gov is the U.S. government's official web portal to all federal, state and local government web resources and services.